Wind_Speed
17 19 20 21 23 24 24 25 25 24 24 23 21 19 17 15 13 12 12 12 10 9 8 7 5 4 3 2 2 2 3 4 5 6 7 8 9 11 12 12 13 13 13 13
17 18 20 22 22 24 24 24 25 24 24 23 21 20 18 16 15 14 13 12 11 9 8 7 5 4 3 1 1 2 3 4 5 6 7 8 9 11 12 12 13 13 14 14
17 18 20 21 23 22 22 22 23 23 23 23 21 20 19 17 16 15 14 13 11 9 8 6 6 4 3 1 0 2 3 4 6 6 7 8 10 11 11 12 13 14 14 14
17 18 20 20 21 22 21 22 23 23 23 23 21 19 18 17 16 15 14 13 12 10 8 7 6 4 3 2 1 2 3 5 6 7 8 9 10 11 11 12 13 14 14 15
15 17 19 20 21 22 22 23 23 23 23 21 20 18 17 16 15 14 13 13 12 10 9 8 7 6 4 3 2 2 3 4 6 7 8 9 10 11 12 13 13 14 14 15
13 15 18 19 20 21 22 23 23 23 23 21 20 19 17 16 15 14 13 13 12 11 9 9 8 6 5 4 3 3 3 4 5 6 7 8 10 11 12 13 14 14 15 16
12 14 17 19 20 20 21 23 23 22 22 20 20 19 17 16 16 15 14 13 13 11 10 9 8 7 6 5 4 3 2 3 3 5 6 7 9 10 11 12 13 14 14 15
12 14 17 18 19 19 20 21 20 20 19 19 19 18 17 16 15 14 14 13 13 11 10 9 9 7 6 5 4 3 2 2 2 3 5 6 8 9 10 11 12 13 14 14
14 14 16 18 19 18 18 19 18 17 17 17 17 17 16 15 14 14 13 13 13 12 11 10 9 8 7 6 5 4 2 1 1 2 4 5 6 7 8 9 11 12 13 14
13 15 15 16 18 18 17 17 17 17 17 16 16 16 15 13 13 13 13 13 13 12 11 10 9 9 8 6 5 4 3 2 0 1 2 4 5 6 7 9 10 11 12 13
12 13 15 16 16 16 17 18 17 16 14 15 15 14 14 14 13 12 12 12 12 11 11 10 10 9 8 7 5 4 3 2 1 0 1 3 4 6 7 8 9 10 11 12
11 13 14 15 15 15 17 18 17 15 13 14 15 13 14 14 13 12 12 12 11 11 10 10 10 9 8 7 6 5 4 3 2 1 2 3 4 5 6 7 8 10 11 11
12 13 13 13 13 13 15 16 16 14 14 14 15 14 13 13 12 12 12 12 11 11 10 10 10 10 9 8 7 6 5 4 3 2 3 4 4 5 6 7 9 9 10 11
13 13 12 11 12 12 13 14 15 15 14 14 14 14 14 13 12 12 12 12 11 11 11 11 11 10 9 8 7 6 5 5 4 4 4 5 6 6 7 8 9 10 11 12
13 14 14 14 14 13 14 15 15 15 14 14 14 15 14 14 13 13 13 12 12 12 12 12 11 11 10 9 8 7 6 6 5 6 6 7 7 8 8 10 11 12 12 13
13 14 15 15 15 15 15 15 16 16 15 15 15 15 15 15 15 14 13 13 13 13 12 12 12 12 11 10 9 8 7 7 7 7 8 8 9 9 10 11 13 13 14 15
14 14 15 15 15 14 14 14 15 15 15 15 15 16 16 15 14 14 14 13 13 13 13 13 12 12 11 10 10 9 9 9 9 9 9 10 11 11 13 14 15 16 16 17
15 15 15 14 14 14 12 15 15 14 15 15 15 16 16 15 15 15 15 14 14 13 13 13 13 12 12 11 11 11 11 11 11 11 12 12 13 14 15 16 17 18 19 20
16 16 16 16 15 13 14 15 15 15 15 16 16 16 17 17 16 15 15 15 15 15 14 14 14 14 13 13 13 12 13 13 13 14 14 15 16 17 18 19 20 21 22 23
19 19 18 17 16 14 14 16 16 15 15 16 17 17 17 17 16 16 17 17 16 16 15 15 15 15 15 15 14 14 15 15 16 17 17 18 19 20 21 22 23 24 25 26
21 21 21 19 19 16 16 17 17 16 15 17 17 17 17 17 18 19 19 18 18 17 17 16 16 17 17 17 17 17 17 18 19 20 21 21 22 23 24 25 26 27 28 29
23 23 22 22 20 17 18 19 18 17 18 19 19 19 19 19 20 20 19 19 19 18 18 18 18 19 19 19 19 20 20 21 22 23 23 25 26 27 27 28 30 31 32 33
24 24 23 23 20 19 20 21 20 20 20 20 20 20 20 21 21 21 20 20 20 21 21 21 21 21 21 22 22 23 23 24 25 26 27 28 29 30 31 32 33 34 35 36
26 26 25 24 22 22 22 23 22 22 22 22 22 22 22 22 22 22 22 22 22 22 23 23 23 24 24 25 25 26 27 27 28 29 30 31 32 33 34 35 36 37 38 38
28 28 27 25 24 24 24 25 25 25 24 24 24 24 24 24 24 24 24 24 24 24 25 25 26 26 27 28 29 29 30 31 32 33 33 34 36 37 37 38 39 40 40 41
29 29 29 28 27 28 27 28 27 27 27 27 27 26 26 26 26 26 26 26 26 27 27 28 28 30 30 31 32 33 34 35 36 36 37 38 38 39 40 41 41 42 42 43
Wind_Direction
204 201 201 201 200 201 202 204 204 205 205 205 205 206 205 206 208 212 214 214 215 218 218 221 227 238 252 268 301 334 349 351 357 3 5 3 4 4 4 5 6 5 4 5
196 195 196 196 194 198 198 198 200 200 200 201 201 202 204 206 208 210 207 208 208 208 210 212 214 226 232 244 319 13 17 22 24 20 14 11 9 8 9 11 12 11 12 13
190 192 193 194 193 193 194 195 197 198 199 199 199 200 200 203 207 208 205 200 200 203 206 204 205 207 202 195 90 51 49 43 37 30 23 19 16 13 14 16 17 18 18 18
191 193 192 192 190 189 190 191 196 198 197 197 197 197 200 204 205 207 200 196 199 202 201 200 200 194 187 182 145 85 68 55 47 40 34 28 23 21 21 22 22 21 21 21
186 188 188 189 188 188 189 189 192 194 196 199 199 199 200 202 204 205 199 196 198 199 197 196 193 189 183 177 159 119 86 63 51 44 38 34 30 28 27 27 26 24 23 23
179 182 184 185 185 185 187 189 190 193 195 194 195 198 196 198 200 201 200 199 199 197 195 191 189 186 180 176 163 134 101 70 53 45 38 34 32 30 29 30 29 28 27 25
176 179 181 184 184 186 188 187 188 190 191 190 194 197 196 199 199 198 198 200 201 200 194 188 186 182 180 178 169 147 115 78 56 45 39 32 28 28 29 30 31 30 28 27
175 175 177 179 184 187 189 188 190 190 192 190 194 197 199 202 201 201 200 199 198 196 194 191 190 186 183 180 173 161 132 93 62 46 36 28 25 27 29 30 29 28 27 26
172 172 173 178 182 185 186 187 192 195 192 192 197 199 202 205 205 205 204 202 197 195 196 195 193 189 186 182 176 173 162 138 77 45 30 25 25 26 25 25 25 24 23 22
172 174 175 177 182 189 190 189 190 193 198 201 201 202 205 210 210 205 203 201 198 196 196 196 195 191 189 186 182 183 190 195 174 38 25 23 20 17 16 17 17 17 17 17
175 178 180 181 186 188 195 193 195 198 203 205 201 202 208 212 210 207 205 202 197 196 197 198 196 193 192 191 192 195 206 217 224 276 4 7 6 6 6 5 7 7 8 9
178 181 184 188 191 194 194 195 196 202 207 206 201 201 208 211 208 207 208 205 201 200 199 200 197 195 194 197 200 202 209 215 226 262 319 338 346 352 354 354 356 357 358 359
180 186 191 196 201 201 200 203 204 204 205 199 194 196 208 211 210 211 210 208 206 204 201 200 198 197 197 200 201 204 210 221 239 267 296 314 328 337 341 342 344 346 347 349
190 190 195 201 205 206 207 210 210 208 204 201 198 200 207 211 215 216 214 213 212 209 205 202 200 200 202 205 208 212 222 235 250 268 286 299 312 320 327 331 333 334 336 337
200 201 204 207 209 210 210 211 211 212 213 211 205 205 207 213 218 220 218 216 216 213 210 208 208 209 211 213 217 224 234 244 257 269 282 292 300 306 312 318 321 324 327 327
211 209 207 210 218 219 215 213 215 218 218 213 208 206 211 213 216 219 219 218 216 214 213 213 213 215 218 221 225 232 241 251 263 273 282 288 292 298 305 311 315 318 319 319
216 214 212 212 217 216 211 211 218 219 214 214 211 211 214 215 219 221 221 218 217 217 216 214 215 218 222 226 232 239 248 257 267 276 282 287 292 296 302 306 309 311 312 313
222 220 217 216 216 216 207 213 217 218 217 217 214 214 216 218 220 220 220 221 221 221 220 218 219 223 228 233 239 247 254 262 270 276 283 287 291 294 298 302 305 306 307 308
226 227 226 224 225 219 219 222 224 224 221 221 221 219 220 222 223 223 225 226 226 225 225 226 228 231 236 242 248 255 262 268 272 277 282 287 291 294 296 299 302 303 303 304
230 230 231 230 230 223 222 229 231 228 222 225 225 224 225 225 225 225 229 228 228 229 231 233 235 238 243 248 254 260 265 270 274 278 282 285 289 292 294 296 298 300 301 301
234 235 237 237 236 228 227 232 234 233 226 228 229 229 229 228 227 228 230 229 230 231 234 237 239 243 247 252 257 262 267 272 276 280 283 285 288 291 293 295 296 298 299 300
237 239 240 241 240 233 234 236 236 234 232 232 232 233 232 231 231 233 235 234 234 235 238 241 243 247 251 255 259 264 268 272 276 280 283 285 288 290 292 294 296 297 298 299
241 242 243 243 243 241 239 237 236 234 234 234 235 236 235 235 236 237 238 238 238 240 242 245 248 251 254 258 261 265 269 273 277 280 283 286 288 290 292 294 295 297 298 298
243 244 245 245 243 242 240 238 238 237 236 236 237 237 237 238 238 239 240 241 243 245 247 249 252 255 257 260 264 267 271 274 277 280 283 286 288 290 292 294 295 296 297 298
244 245 245 245 243 242 241 240 240 240 239 239 239 239 240 240 241 243 244 246 247 249 252 254 256 258 260 263 266 269 272 275 277 280 283 285 287 289 290 292 294 295 296 296
245 246 246 245 243 243 242 242 242 241 241 241 242 242 243 244 245 246 248 249 251 253 255 257 259 261 263 265 268 271 274 276 278 281 283 285 286 288 289 291 293 294 295 295
Height
5797 5802 5805 5809 5814 5819 5823 5828 5833 5837 5841 5846 5849 5852 5856 5858 5860 5862 5864 5866 5868 5869 5870 5871 5871 5872 5872 5872 5872 5871 5871 5870 5869 5869 5867 5866 5865 5863 5861 5859 5857 5855 5853 5850
5797 5800 5803 5807 5811 5816 5821 5826 5831 5835 5839 5843 5847 5850 5854 5856 5859 5861 5863 5865 5866 5868 5869 5870 5870 5871 5871 5871 5871 5871 5871 5870 5869 5868 5867 5866 5865 5864 5862 5859 5857 5855 5853 5851
5796 5800 5802 5806 5811 5815 5820 5825 5829 5833 5837 5841 5845 5849 5852 5855 5857 5859 5861 5863 5865 5867 5868 5869 5870 5870 5871 5871 5871 5871 5870 5870 5869 5868 5868 5867 5865 5864 5862 5860 5858 5856 5854 5851
5795 5799 5803 5806 5810 5815 5819 5824 5828 5832 5837 5840 5844 5848 5851 5853 5856 5858 5860 5862 5864 5866 5867 5868 5869 5870 5870 5871 5871 5871 5870 5870 5870 5869 5868 5867 5866 5865 5863 5861 5859 5857 5854 5852
5796 5799 5803 5806 5811 5814 5819 5823 5827 5831 5835 5839 5843 5846 5850 5852 5855 5857 5859 5861 5863 5864 5866 5867 5868 5869 5870 5870 5871 5871 5870 5870 5870 5869 5869 5868 5867 5865 5863 5861 5860 5858 5856 5853
5797 5800 5804 5807 5811 5815 5818 5823 5827 5830 5834 5839 5842 5845 5849 5851 5854 5856 5858 5860 5861 5863 5865 5866 5867 5868 5869 5870 5870 5870 5870 5870 5870 5870 5869 5869 5867 5866 5864 5862 5861 5859 5857 5855
5799 5801 5804 5808 5811 5815 5819 5823 5827 5830 5833 5837 5841 5844 5848 5850 5852 5854 5856 5858 5860 5862 5863 5865 5866 5867 5868 5869 5870 5870 5870 5870 5870 5870 5870 5869 5868 5867 5865 5864 5862 5860 5858 5856
5800 5803 5806 5809 5813 5816 5819 5824 5828 5831 5834 5838 5840 5843 5848 5849 5851 5853 5855 5857 5859 5861 5863 5864 5865 5866 5868 5868 5869 5870 5870 5870 5870 5870 5870 5869 5868 5867 5866 5865 5863 5862 5860 5858
5801 5804 5807 5810 5813 5817 5820 5824 5828 5832 5834 5838 5840 5844 5846 5848 5850 5852 5854 5856 5858 5860 5861 5863 5864 5865 5867 5868 5868 5869 5870 5870 5870 5870 5870 5869 5868 5868 5867 5866 5864 5863 5861 5859
5802 5805 5808 5811 5814 5817 5821 5824 5827 5831 5834 5837 5840 5843 5846 5848 5849 5851 5853 5855 5857 5858 5860 5862 5863 5864 5866 5867 5867 5868 5869 5870 5870 5870 5869 5869 5869 5868 5867 5866 5865 5863 5862 5860
5803 5807 5810 5812 5815 5818 5821 5824 5827 5830 5833 5837 5840 5845 5845 5847 5848 5850 5852 5854 5855 5857 5859 5860 5862 5863 5864 5866 5866 5867 5868 5869 5869 5869 5869 5868 5868 5868 5867 5866 5865 5863 5862 5860
5805 5808 5810 5813 5815 5817 5820 5823 5826 5830 5833 5835 5838 5845 5844 5845 5847 5849 5851 5852 5854 5855 5857 5858 5860 5861 5863 5864 5865 5866 5867 5868 5868 5868 5868 5868 5867 5867 5866 5865 5864 5863 5861 5860
5805 5808 5810 5813 5817 5819 5820 5823 5825 5829 5831 5834 5837 5843 5842 5844 5846 5848 5849 5851 5852 5854 5855 5857 5858 5860 5861 5863 5864 5865 5866 5866 5867 5867 5867 5867 5866 5866 5865 5864 5863 5862 5861 5859
5806 5808 5811 5814 5815 5817 5819 5822 5824 5827 5829 5832 5836 5839 5841 5843 5844 5846 5847 5849 5850 5852 5853 5855 5857 5858 5860 5861 5862 5863 5864 5865 5865 5865 5865 5865 5865 5865 5864 5863 5862 5861 5859 5858
5805 5808 5809 5811 5813 5815 5818 5820 5823 5825 5828 5831 5834 5836 5839 5840 5842 5844 5845 5847 5848 5850 5852 5853 5855 5856 5858 5859 5860 5861 5862 5863 5863 5863 5864 5863 5863 5863 5862 5861 5860 5859 5857 5856
5804 5806 5808 5810 5812 5813 5816 5818 5820 5823 5825 5828 5831 5834 5836 5837 5839 5841 5843 5844 5846 5848 5849 5851 5852 5854 5855 5857 5858 5859 5860 5861 5861 5861 5861 5861 5861 5860 5859 5859 5857 5856 5855 5853
5802 5805 5807 5808 5809 5811 5814 5817 5818 5820 5823 5825 5828 5831 5832 5834 5836 5838 5840 5841 5843 5845 5847 5848 5850 5851 5853 5854 5855 5856 5857 5858 5858 5859 5858 5858 5858 5857 5856 5855 5854 5853 5851 5850
5800 5802 5804 5806 5808 5810 5815 5814 5816 5818 5820 5822 5825 5827 5829 5831 5833 5835 5837 5839 5840 5842 5844 5845 5847 5848 5850 5851 5852 5853 5854 5855 5855 5855 5855 5854 5854 5853 5852 5851 5850 5849 5847 5845
5798 5800 5802 5804 5805 5808 5811 5812 5814 5816 5818 5820 5822 5824 5826 5827 5829 5832 5834 5835 5837 5839 5840 5842 5844 5845 5846 5848 5849 5850 5850 5851 5851 5851 5851 5850 5850 5849 5848 5847 5845 5844 5842 5840
5794 5796 5799 5801 5802 5805 5809 5809 5810 5813 5815 5817 5818 5820 5822 5824 5826 5829 5830 5832 5833 5835 5837 5838 5840 5841 5843 5844 5845 5845 5846 5846 5846 5846 5846 5845 5845 5844 5843 5841 5840 5838 5836 5834
5790 5792 5795 5797 5798 5802 5804 5805 5807 5810 5813 5813 5814 5816 5818 5820 5823 5824 5825 5827 5829 5831 5832 5834 5835 5837 5838 5839 5840 5841 5841 5841 5841 5841 5840 5840 5839 5838 5836 5835 5833 5832 5829 5827
5786 5788 5790 5792 5794 5800 5800 5801 5803 5805 5806 5808 5809 5811 5813 5815 5817 5819 5821 5823 5824 5826 5828 5829 5831 5832 5833 5834 5835 5835 5835 5835 5835 5835 5834 5833 5832 5831 5829 5828 5826 5824 5821 5819
5780 5783 5785 5788 5792 5793 5794 5796 5797 5799 5801 5803 5805 5807 5809 5810 5812 5814 5816 5818 5819 5821 5823 5824 5825 5826 5827 5828 5829 5829 5829 5829 5828 5828 5827 5826 5825 5823 5822 5820 5818 5815 5813 5810
5775 5777 5779 5782 5785 5786 5788 5790 5792 5794 5796 5797 5799 5802 5804 5805 5807 5809 5810 5812 5814 5815 5817 5818 5819 5820 5821 5821 5822 5822 5822 5821 5821 5820 5819 5818 5816 5815 5813 5811 5808 5806 5803 5800
5768 5770 5773 5775 5778 5780 5782 5784 5786 5788 5790 5792 5794 5796 5797 5799 5801 5803 5804 5806 5807 5809 5810 5811 5812 5813 5813 5813 5814 5814 5813 5813 5812 5811 5810 5808 5807 5805 5803 5801 5798 5795 5792 5789
5761 5764 5766 5769 5771 5773 5775 5777 5779 5781 5783 5785 5787 5789 5791 5793 5794 5796 5797 5799 5800 5802 5803 5803 5804 5805 5805 5805 5805 5805 5804 5803 5802 5801 5800 5798 5796 5794 5792 5790 5787 5784 5781 5778